Pittsfield, MA

7:18 AM EDT on October 17, 2019 (GMT -0400)
Pittsfield Municipal

Weather History for KPSF - September, 2019

Change the Weather History Date:

Friday, September 20, 2019

  Actual Average Record
Temperature  
Mean Temperature 54 °F 57 °F  
Max Temperature 73 °F 67 °F 85 °F (1946)
Min Temperature 35 °F 46 °F 32 °F (1959)
Degree Days  
Heating Degree Days 10 8  
Month to date heating degree days 111 108  
Since 1 July heating degree days 137 186  
Cooling Degree Days 0 0  
Month to date cooling degree days 15 16  
Year to date cooling degree days 407 286  
Growing Degree Days 4 (Base 50)    
Moisture  
Dew Point 40 °F    
Average Humidity 82    
Maximum Humidity 100    
Minimum Humidity 35    
Precipitation  
Precipitation 0.00 in 0.13 in 1.92 in (1960)
Month to date precipitation 2.54 2.43  
Year to date precipitation 30.60 32.21  
Sea Level Pressure  
Sea Level Pressure 30.22 in    
Wind  
Wind Speed 1 mph ()    
Max Wind Speed 12 mph    
Max Gust Speed 16 mph    
Visibility 5.0 miles    
Events Fog    
T = Trace of Precipitation, MM = Missing Value Source: Averaged Metar Reports

Daily Weather History Graph

Daily Weather History Graph

Search for Another Location

Airport or City:

Astronomy

Sep. 20, 2019 Rise Set
Actual Time 6:38 AM EDT 6:54 PM EDT
Civil Twilight 6:10 AM EDT 7:22 PM EDT
Nautical Twilight 5:36 AM EDT 7:55 PM EDT
Astronomical Twilight 5:03 AM EDT 8:29 PM EDT
Moon 10:35 PM EDT (9/20) 12:47 PM EDT (9/20)
Length of Visible Light 13h 12m
Length of Day
12h 16m
Waning Gibbous, 65% of the Moon is Illuminated
Sep 20
Waning Gibbous
Sep 21
Last Quarter
Sep 28
New
Oct 5
First Quarter
Oct 13
Full

Hourly Weather History & Observations

Time (EDT) Temp. Dew Point Humidity Pressure Visibility Wind Dir Wind Speed Gust Speed Precip Events Conditions
1:04 AM 41.0 °F 37.9 °F 89% 30.26 in 2.5 mi Calm Calm - N/A   Mostly Cloudy
1:06 AM 41.0 °F 37.9 °F 89% 30.26 in 1.5 mi Calm Calm - N/A   Mostly Cloudy
1:24 AM 39.9 °F 37.0 °F 89% 30.26 in 1.5 mi Calm Calm - N/A   Mostly Cloudy
1:35 AM 41.0 °F 37.0 °F 86% 30.26 in 3.0 mi Calm Calm - N/A   Mostly Cloudy
1:54 AM 39.9 °F 37.0 °F 89% 30.23 in 8.0 mi Calm Calm - N/A   Partly Cloudy
2:01 AM 39.9 °F 37.0 °F 89% 30.26 in 1.5 mi Calm Calm - N/A   Clear
2:15 AM 39.9 °F 37.0 °F 89% 30.25 in 2.5 mi Calm Calm - N/A   Partly Cloudy
2:22 AM 39.9 °F 37.9 °F 93% 30.25 in 3.0 mi Calm Calm - N/A   Mostly Cloudy
2:25 AM 39.9 °F 37.9 °F 93% 30.25 in 1.5 mi Calm Calm - N/A   Mostly Cloudy
2:27 AM 39.9 °F 37.9 °F 93% 30.25 in 0.8 mi Calm Calm - N/A   Mist
2:37 AM 39.0 °F 37.0 °F 93% 30.24 in 0.2 mi Calm Calm - N/A Fog Fog
2:54 AM 39.0 °F 37.0 °F 93% 30.22 in 0.5 mi Calm Calm - N/A Fog Fog
3:27 AM 39.9 °F 37.0 °F 89% 30.24 in 2.0 mi Calm Calm - N/A   Overcast
3:38 AM 39.9 °F 37.9 °F 93% 30.24 in 1.0 mi Calm Calm - N/A   Mist
3:44 AM 39.9 °F 37.9 °F 93% 30.23 in 3.0 mi Calm Calm - N/A   Mostly Cloudy
3:51 AM 37.4 °F 37.4 °F 100% 30.23 in 1.8 mi Calm Calm - N/A   Mostly Cloudy
3:54 AM 39.0 °F 37.0 °F 93% 30.21 in 1.5 mi Calm Calm - N/A   Mostly Cloudy
4:11 AM 37.9 °F 36.0 °F 93% 30.24 in 3.0 mi Calm Calm - N/A   Mostly Cloudy
4:16 AM 37.9 °F 36.0 °F 93% 30.24 in 1.8 mi Calm Calm - N/A   Overcast
4:29 AM 37.9 °F 36.0 °F 93% 30.24 in 2.0 mi Calm Calm - N/A   Overcast
4:35 AM 39.0 °F 36.0 °F 89% 30.24 in 0.8 mi Calm Calm - N/A   Mist
4:49 AM 37.4 °F 37.4 °F 100% 30.24 in 2.5 mi Calm Calm - N/A   Overcast
4:54 AM 37.9 °F 36.0 °F 93% 30.22 in 7.0 mi Calm Calm - N/A   Overcast
5:09 AM 37.0 °F 35.1 °F 93% 30.24 in 1.8 mi Calm Calm - N/A   Mostly Cloudy
5:23 AM 37.0 °F 35.1 °F 93% 30.24 in 2.0 mi Calm Calm - N/A   Partly Cloudy
5:34 AM 37.0 °F 35.1 °F 93% 30.24 in 0.8 mi Calm Calm - N/A   Mist
5:54 AM 37.9 °F 36.0 °F 93% 30.22 in 0.5 mi Calm Calm - N/A Fog Fog
6:01 AM 37.0 °F 36.0 °F 96% 30.25 in 2.5 mi Calm Calm - N/A   Mostly Cloudy
6:08 AM 37.9 °F 35.1 °F 89% 30.25 in 9.0 mi Calm Calm - N/A   Scattered Clouds
6:54 AM 37.0 °F 34.0 °F 89% 30.24 in 0.5 mi Calm Calm - N/A Fog Fog
7:01 AM 35.1 °F 34.0 °F 96% 30.25 in 0.2 mi Calm Calm - N/A Fog Fog
7:06 AM 36.0 °F 34.0 °F 93% 30.25 in 1.0 mi Calm Calm - N/A   Mist
7:08 AM 36.0 °F 34.0 °F 93% 30.25 in 4.0 mi Calm Calm - N/A   Scattered Clouds
7:18 AM 37.9 °F 36.0 °F 93% 30.25 in 7.0 mi Calm Calm - N/A   Mostly Cloudy
7:35 AM 39.0 °F 37.9 °F 96% 30.26 in 10.0 mi Calm Calm - N/A   Scattered Clouds
7:54 AM 41.0 °F 39.0 °F 93% 30.26 in 10.0 mi Calm Calm - N/A   Clear
8:54 AM 50.0 °F 45.0 °F 83% 30.25 in 10.0 mi Calm Calm - N/A   Clear
9:54 AM 61.0 °F 46.9 °F 60% 30.24 in 10.0 mi WSW 4.6 mph - N/A   Clear
10:54 AM 66.0 °F 48.0 °F 52% 30.22 in 10.0 mi Variable 5.8 mph - N/A   Clear
11:54 AM 68.0 °F 48.9 °F 50% 30.20 in 10.0 mi NW 6.9 mph - N/A   Clear
12:54 PM 71.1 °F 48.9 °F 45% 30.17 in 10.0 mi NW 6.9 mph - N/A   Clear
1:54 PM 71.1 °F 48.9 °F 45% 30.15 in 10.0 mi Variable 5.8 mph - N/A   Clear
2:54 PM 73.0 °F 48.9 °F 42% 30.14 in 10.0 mi West 10.4 mph - N/A   Clear
3:54 PM 73.0 °F 48.0 °F 41% 30.13 in 10.0 mi West 6.9 mph - N/A   Clear
4:54 PM 72.0 °F 43.0 °F 35% 30.13 in 10.0 mi West 9.2 mph - N/A   Clear
5:54 PM 70.0 °F 44.1 °F 39% 30.13 in 10.0 mi WNW 3.5 mph - N/A   Clear
6:54 PM 63.0 °F 48.0 °F 58% 30.14 in 10.0 mi WSW 3.5 mph - N/A   Clear
7:54 PM 54.0 °F 46.0 °F 75% 30.17 in 10.0 mi Calm Calm - N/A   Clear
8:54 PM 51.1 °F 46.0 °F 83% 30.17 in 10.0 mi Calm Calm - N/A   Clear
9:54 PM 52.0 °F 46.9 °F 83% 30.16 in 10.0 mi Calm Calm - N/A   Clear
10:54 PM 50.0 °F 46.0 °F 86% 30.15 in 10.0 mi Calm Calm - N/A   Clear
11:54 PM 48.9 °F 45.0 °F 86% 30.14 in 10.0 mi Calm Calm - N/A   Clear